TimeCST,TemperatureF,Dew PointF,Humidity,Sea Level PressureIn,VisibilityMPH,Wind Direction,Wind SpeedMPH,Gust SpeedMPH,PrecipitationIn,Events,Conditions,WindDirDegrees,DateUTC
12:15 AM,12.2,5.0,73,29.97,3.0,SW,10.4,16.1,N/A,,Overcast,220,2014-02-12 06:15:00
12:35 AM,12.2,3.2,67,29.97,8.0,SSW,11.5,19.6,N/A,,Overcast,200,2014-02-12 06:35:00
12:55 AM,12.2,3.2,67,29.96,5.0,SSW,12.7,19.6,N/A,,Overcast,200,2014-02-12 06:55:00
1:15 AM,10.4,3.2,73,29.96,3.0,SSW,13.8,20.7,N/A,,Overcast,210,2014-02-12 07:15:00
1:35 AM,12.2,3.2,67,29.96,9.0,SW,11.5,19.6,N/A,,Overcast,220,2014-02-12 07:35:00
1:55 AM,12.2,3.2,67,29.96,10.0,SW,15.0,20.7,N/A,,Overcast,220,2014-02-12 07:55:00
2:15 AM,12.2,3.2,67,29.97,10.0,SSW,12.7,17.3,N/A,,Overcast,210,2014-02-12 08:15:00
2:35 AM,12.2,3.2,67,29.96,10.0,SW,15.0,20.7,N/A,,Overcast,220,2014-02-12 08:35:00
2:55 AM,12.2,3.2,67,29.96,10.0,SSW,15.0,-,N/A,,Overcast,210,2014-02-12 08:55:00
3:15 AM,12.2,3.2,67,29.96,10.0,SW,13.8,18.4,N/A,,Overcast,220,2014-02-12 09:15:00
3:35 AM,12.2,3.2,67,29.97,10.0,SW,15.0,-,N/A,,Overcast,230,2014-02-12 09:35:00
3:55 AM,10.4,3.2,73,29.96,10.0,SW,12.7,21.9,N/A,,Overcast,220,2014-02-12 09:55:00
4:15 AM,10.4,3.2,73,29.97,10.0,SW,13.8,-,N/A,,Overcast,220,2014-02-12 10:15:00
4:35 AM,10.4,3.2,73,29.97,10.0,SW,13.8,17.3,N/A,,Overcast,220,2014-02-12 10:35:00
4:55 AM,10.4,3.2,73,29.97,10.0,SW,10.4,-,N/A,,Overcast,220,2014-02-12 10:55:00
5:15 AM,10.4,3.2,73,29.97,10.0,SW,11.5,-,N/A,,Overcast,220,2014-02-12 11:15:00
5:35 AM,10.4,3.2,73,29.97,10.0,SW,12.7,18.4,N/A,,Overcast,220,2014-02-12 11:35:00
5:55 AM,10.4,5.0,79,29.97,10.0,SW,10.4,-,N/A,,Overcast,220,2014-02-12 11:55:00
6:15 AM,10.4,3.2,73,29.98,10.0,SW,9.2,-,N/A,,Overcast,220,2014-02-12 12:15:00
6:35 AM,10.4,5.0,79,29.98,10.0,SW,11.5,-,N/A,,Overcast,230,2014-02-12 12:35:00
6:55 AM,10.4,5.0,79,29.98,10.0,SW,12.7,-,N/A,,Overcast,230,2014-02-12 12:55:00
7:15 AM,10.4,6.8,85,29.98,10.0,SW,11.5,-,N/A,,Overcast,230,2014-02-12 13:15:00
7:35 AM,10.4,6.8,85,29.98,10.0,SW,9.2,-,N/A,,Overcast,230,2014-02-12 13:35:00
7:55 AM,12.2,6.8,79,29.99,8.0,WSW,10.4,-,N/A,,Overcast,240,2014-02-12 13:55:00
8:15 AM,12.2,6.8,79,29.99,3.0,WSW,10.4,-,N/A,,Overcast,250,2014-02-12 14:15:00
8:35 AM,12.2,6.8,79,29.99,3.0,WSW,9.2,-,N/A,,Overcast,250,2014-02-12 14:35:00
8:55 AM,12.2,6.8,79,29.99,3.0,WSW,10.4,-,N/A,,Overcast,250,2014-02-12 14:55:00
9:15 AM,12.2,6.8,79,29.99,3.0,WSW,11.5,-,N/A,,Overcast,240,2014-02-12 15:15:00
9:35 AM,12.2,8.6,85,29.98,4.0,WSW,11.5,-,N/A,,Overcast,250,2014-02-12 15:35:00
9:55 AM,14.0,8.6,79,29.97,5.0,WSW,11.5,-,N/A,,Overcast,250,2014-02-12 15:55:00
10:15 AM,14.0,6.8,73,29.98,8.0,WSW,11.5,-,N/A,,Overcast,250,2014-02-12 16:15:00
10:35 AM,14.0,6.8,73,29.98,9.0,WSW,10.4,-,N/A,,Overcast,250,2014-02-12 16:35:00
10:55 AM,15.8,8.6,73,29.98,10.0,West,13.8,-,N/A,,Mostly Cloudy,260,2014-02-12 16:55:00
11:15 AM,15.8,8.6,73,29.98,10.0,West,12.7,-,N/A,,Overcast,280,2014-02-12 17:15:00
11:35 AM,15.8,6.8,68,29.97,10.0,West,10.4,-,N/A,,Overcast,270,2014-02-12 17:35:00
11:55 AM,17.6,8.6,68,29.97,10.0,West,10.4,-,N/A,,Mostly Cloudy,270,2014-02-12 17:55:00
12:15 PM,17.6,8.6,68,29.96,10.0,West,10.4,-,N/A,,Partly Cloudy,260,2014-02-12 18:15:00
12:35 PM,17.6,8.6,68,29.95,10.0,West,10.4,-,N/A,,Partly Cloudy,280,2014-02-12 18:35:00
12:55 PM,19.4,8.6,63,29.94,10.0,West,6.9,-,N/A,,Partly Cloudy,260,2014-02-12 18:55:00
1:15 PM,19.4,6.8,58,29.94,10.0,WSW,8.1,-,N/A,,Clear,240,2014-02-12 19:15:00
1:35 PM,19.4,6.8,58,29.93,10.0,SW,6.9,-,N/A,,Clear,220,2014-02-12 19:35:00
1:55 PM,19.4,8.6,63,29.92,10.0,WSW,9.2,-,N/A,,Clear,240,2014-02-12 19:55:00
2:15 PM,19.4,6.8,58,29.91,10.0,WSW,4.6,-,N/A,,Clear,250,2014-02-12 20:15:00
2:35 PM,21.2,8.6,58,29.91,10.0,WSW,8.1,-,N/A,,Clear,250,2014-02-12 20:35:00
2:55 PM,21.2,6.8,54,29.91,10.0,West,12.7,-,N/A,,Clear,260,2014-02-12 20:55:00
3:15 PM,21.2,8.6,58,29.91,10.0,WSW,8.1,-,N/A,,Clear,250,2014-02-12 21:15:00
3:35 PM,21.2,8.6,58,29.91,10.0,North,5.8,-,N/A,,Clear,350,2014-02-12 21:35:00
3:55 PM,19.4,6.8,58,29.90,10.0,NW,5.8,-,N/A,,Clear,320,2014-02-12 21:55:00
4:15 PM,21.2,8.6,58,29.89,10.0,NNW,4.6,-,N/A,,Clear,330,2014-02-12 22:15:00
4:35 PM,19.4,6.8,58,29.89,10.0,NNW,4.6,-,N/A,,Clear,330,2014-02-12 22:35:00
4:55 PM,19.4,8.6,63,29.89,10.0,NNW,6.9,-,N/A,,Clear,330,2014-02-12 22:55:00
5:15 PM,19.4,6.8,58,29.90,10.0,North,3.5,-,N/A,,Clear,350,2014-02-12 23:15:00
5:35 PM,17.6,8.6,68,29.90,10.0,Calm,Calm,-,N/A,,Clear,0,2014-02-12 23:35:00
5:55 PM,15.8,6.8,68,29.90,10.0,Calm,Calm,-,N/A,,Clear,0,2014-02-12 23:55:00
6:15 PM,15.8,6.8,68,29.90,10.0,Calm,Calm,-,N/A,,Clear,0,2014-02-13 00:15:00
6:35 PM,14.0,6.8,73,29.91,10.0,Calm,Calm,-,N/A,,Clear,0,2014-02-13 00:35:00
6:55 PM,8.6,-0.4,67,29.91,10.0,Calm,Calm,-,N/A,,Clear,0,2014-02-13 00:55:00
7:15 PM,10.4,3.2,73,29.91,10.0,Calm,Calm,-,N/A,,Clear,0,2014-02-13 01:15:00
7:35 PM,8.6,3.2,79,29.90,10.0,Calm,Calm,-,N/A,,Clear,0,2014-02-13 01:35:00
7:55 PM,8.6,5.0,85,29.90,10.0,Calm,Calm,-,N/A,,Partly Cloudy,0,2014-02-13 01:55:00
8:15 PM,8.6,1.4,73,29.89,10.0,Calm,Calm,-,N/A,,Clear,0,2014-02-13 02:15:00
8:35 PM,8.6,5.0,85,29.89,10.0,Calm,Calm,-,N/A,,Clear,0,2014-02-13 02:35:00
8:55 PM,8.6,3.2,79,29.88,10.0,NE,3.5,-,N/A,,Clear,50,2014-02-13 02:55:00
9:15 PM,8.6,1.4,73,29.88,10.0,Calm,Calm,-,N/A,,Clear,0,2014-02-13 03:15:00
9:35 PM,8.6,1.4,73,29.86,10.0,East,4.6,-,N/A,,Clear,90,2014-02-13 03:35:00
9:55 PM,10.4,6.8,85,29.86,10.0,Calm,Calm,-,N/A,,Partly Cloudy,0,2014-02-13 03:55:00
10:15 PM,8.6,1.4,73,29.86,10.0,Calm,Calm,-,N/A,,Partly Cloudy,0,2014-02-13 04:15:00
10:35 PM,10.4,6.8,85,29.84,10.0,South,3.5,-,N/A,,Clear,170,2014-02-13 04:35:00
10:55 PM,12.2,8.6,85,29.84,10.0,South,4.6,-,N/A,,Clear,190,2014-02-13 04:55:00
11:15 PM,14.0,6.8,73,29.83,10.0,South,6.9,-,N/A,,Partly Cloudy,180,2014-02-13 05:15:00
11:35 PM,14.0,6.8,73,29.81,10.0,Calm,Calm,-,N/A,,Partly Cloudy,0,2014-02-13 05:35:00
11:55 PM,14.0,6.8,73,29.81,10.0,South,4.6,-,N/A,,Clear,180,2014-02-13 05:55:00